This demonstration page uses our WeatherBlox Daily Observations layout. Learn more.

Left ArrowRight Arrow

39.51506, -84.39828

Hourly Observations for April 18, 2017

Temp ( °F °C ) Dew Point ( °F °C ) Humidity (%) Winds ( mph kmh ) Pressure ( in mb ) Visibility ( mi km ) Precip ( " mm )
12:15 am 00:15 Clear 55 12.5 42 5.7 64 64 Calm 30.21 1023 10 16 0.00 0.00
12:35 am 00:35 Clear 52 11.2 42 5.7 69 69 Calm 30.21 1023 10 16 0.00 0.00
12:55 am 00:55 Clear 52 11 41 4.8 66 66 Calm 30.21 1023 10 16 0.00 0.00
1:15 am 01:15 Clear 50 10 40 4.7 70 70 N 3 6 30.21 1023 10 16 0.00 0.00
1:35 am 01:35 Clear 49 9.6 41 4.8 72 72 Calm 30.21 1023 10 16 0.00 0.00
1:55 am 01:55 Clear 49 9.6 41 5 73 73 Calm 30.21 1023 10 16 0.00 0.00
2:15 am 02:15 Clear 49 9.6 41 4.8 72 72 Calm 30.21 1023 10 16 0.00 0.00
2:35 am 02:35 Clear 47 8.3 40 4.3 76 76 Calm 30.21 1023 10 16 0.00 0.00
2:55 am 02:55 Clear 48 8.9 41 5.1 77 77 Calm 30.21 1023 10 16 0.00 0.00
3:15 am 03:15 Clear 49 9.3 42 5.3 76 76 Calm 30.21 1023 10 16 0.00 0.00
3:35 am 03:35 Clear 49 9.6 42 5.8 77 77 Calm 30.21 1023 10 16 0.00 0.00
3:55 am 03:55 Clear 47 8.2 39 4.1 76 76 Calm 30.21 1023 10 16 0.00 0.00
4:15 am 04:15 Clear 47 8.2 40 4.3 77 77 Calm 30.24 1024 10 16 0.00 0.00
4:35 am 04:35 Clear 47 8.2 39 4.1 76 76 Calm 30.24 1024 10 16 0.00 0.00
4:55 am 04:55 Clear 45 7.3 39 3.7 78 78 Calm 30.24 1024 10 16 0.00 0.00
5:15 am 05:15 Clear 47 8.2 40 4.6 78 78 NNE 3 6 30.24 1024 10 16 0.00 0.00
5:35 am 05:35 Clear 45 7 38 3.5 79 79 Calm 30.24 1024 10 16 0.00 0.00
5:55 am 05:55 Clear 45 7.2 38 3.4 77 77 Calm 30.24 1024 10 16 0.00 0.00
6:15 am 06:15 Clear 43 5.9 36 2.4 78 78 Calm 30.24 1024 10 16 0.00 0.00
6:35 am 06:35 Clear 42 5.8 37 2.5 80 80 NNE 3 6 30.24 1024 10 16 0.00 0.00
6:55 am 06:55 Clear 42 5.6 36 2.3 80 80 Calm 30.27 1025 10 16 0.00 0.00
7:15 am 07:15 Sunny 42 5.8 37 2.6 80 80 Calm 30.24 1024 10 16 0.00 0.00
7:35 am 07:35 Sunny 44 6.4 38 3.1 80 80 Calm 30.27 1025 10 16 0.00 0.00
7:55 am 07:55 Sunny 48 9 42 5.5 79 79 Calm 30.27 1025 10 16 0.00 0.00
8:15 am 08:15 Sunny 49 9.6 42 5.3 75 75 Calm 30.27 1025 10 16 0.00 0.00
8:35 am 08:35 Sunny 55 12.5 42 5.8 64 64 N 3 6 30.27 1025 10 16 0.00 0.00
8:55 am 08:55 Sunny 56 13.6 42 5.4 58 58 NNE 3 6 30.27 1025 10 16 0.00 0.00
9:15 am 09:15 Sunny 59 15.2 43 6 54 54 NNE 5 7 30.27 1025 10 16 0.00 0.00
9:35 am 09:35 Sunny 61 16 40 4.4 46 46 N 6 9 30.24 1024 10 16 0.00 0.00
9:55 am 09:55 Sunny 64 18 35 1.6 33 33 E 9 15 30.21 1023 10 16 0.00 0.00
10:15 am 10:15 Sunny 68 20 38 3.1 33 33 ENE 10 17 30.21 1023 10 16 0.00 0.00
10:35 am 10:35 Sunny 69 20.8 35 1.9 29 29 E 9 15 30.21 1023 10 16 0.00 0.00
10:55 am 10:55 Sunny 69 20.8 31 -0.6 24 24 E 13 20 30.21 1023 10 16 0.00 0.00
11:15 am 11:15 Sunny 70 20.9 25 -3.9 19 19 E 14 22 30.21 1023 10 16 0.00 0.00
11:35 am 11:35 Sunny 72 22.3 23 -5.1 16 16 ESE 16 26 30.21 1023 10 16 0.00 0.00
11:55 am 11:55 Sunny 74 23.5 25 -3.9 16 16 E 14 22 30.21 1023 10 16 0.00 0.00
12:15 pm 12:15 Sunny 74 23.6 21 -6.1 13 13 E 16 26 30.18 1022 10 16 0.00 0.00
12:35 pm 12:35 Sunny 74 23.6 24 -4.7 15 15 E 13 20 30.18 1022 10 16 0.00 0.00
12:55 pm 12:55 Sunny 74 23.6 24 -4.7 15 15 ESE 12 19 30.18 1022 10 16 0.00 0.00
1:15 pm 13:15 Sunny 74 23.6 22 -5.8 14 14 SE 15 24 30.18 1022 10 16 0.00 0.00
1:35 pm 13:35 Sunny 74 23.6 22 -5.6 14 14 ESE 13 20 30.18 1022 10 16 0.00 0.00
1:55 pm 13:55 Sunny 75 24.1 21 -6.3 13 13 ESE 14 22 30.18 1022 10 16 0.00 0.00
2:15 pm 14:15 Sunny 76 24.7 24 -4.6 14 14 ESE 9 15 30.15 1021 10 16 0.00 0.00
2:35 pm 14:35 Sunny 77 25.1 28 -2.3 16 16 SSE 8 13 30.15 1021 10 16 0.00 0.00
2:55 pm 14:55 Sunny 77 25.1 27 -2.7 16 16 ESE 8 13 30.15 1021 10 16 0.00 0.00
3:15 pm 15:15 Partly Cloudy 77 25.1 27 -2.9 15 15 SSE 10 17 30.15 1021 10 16 0.00 0.00
3:35 pm 15:35 Partly Cloudy 77 25.1 29 -1.5 17 17 SSE 10 17 30.12 1020 10 16 0.00 0.00
3:55 pm 15:55 Partly Cloudy 77 25.1 30 -1.1 18 18 SSE 5 7 30.12 1020 10 16 0.00 0.00
4:15 pm 16:15 Sunny 77 25.1 34 1.3 21 21 SE 8 13 30.12 1020 10 16 0.00 0.00
4:35 pm 16:35 Partly Cloudy 79 26.3 34 1.3 20 20 SSE 13 20 30.12 1020 10 16 0.00 0.00
4:55 pm 16:55 Partly Cloudy 77 25.1 33 0.6 20 20 SSE 6 9 30.09 1019 10 16 0.00 0.00
5:15 pm 17:15 Partly Cloudy 79 26.3 33 0.7 19 19 SE 12 19 30.09 1019 10 16 0.00 0.00
5:35 pm 17:35 Partly Cloudy 78 25.8 33 0.6 19 19 SE 12 19 30.09 1019 10 16 0.00 0.00
5:55 pm 17:55 Mostly Cloudy 77 25.1 34 1.1 21 21 SE 9 15 30.09 1019 10 16 0.00 0.00
6:20 pm 18:20 Cloudy 77 25.1 36 2.3 23 23 SE 10 17 30.06 1018 10 16 0.00 0.00
6:35 pm 18:35 Cloudy 77 25.1 37 2.9 24 24 SE 8 13 30.06 1018 10 16 0.00 0.00
6:55 pm 18:55 Partly Cloudy 77 25.1 37 2.5 23 23 SSE 10 17 30.06 1018 10 16 0.00 0.00
7:15 pm 19:15 Sunny 77 25.1 38 3.4 24 24 S 10 17 30.06 1018 10 16 0.00 0.00
7:35 pm 19:35 Sunny 74 23.6 39 3.9 28 28 SSE 13 20 30.06 1018 10 16 0.00 0.00
7:55 pm 19:55 Sunny 74 23.6 42 5.7 32 32 S 12 19 30.06 1018 10 16 0.00 0.00
8:15 pm 20:15 Sunny 74 23.6 46 7.5 36 36 S 8 13 30.06 1018 10 16 0.00 0.00
8:35 pm 20:35 Mostly Cloudy 74 23.6 49 9.4 41 41 S 9 15 30.09 1019 10 16 0.00 0.00
8:55 pm 20:55 Partly Cloudy 74 23.5 51 10.5 44 44 S 9 15 30.06 1018 10 16 0.00 0.00
9:15 pm 21:15 Mostly Cloudy 74 23.3 52 11.1 46 46 S 12 19 30.09 1019 10 16 0.00 0.00
9:35 pm 21:35 Cloudy 72 22.2 52 11.3 50 50 S 9 15 30.09 1019 10 16 0.00 0.00
9:55 pm 21:55 Mostly Cloudy 70 21.1 52 10.9 52 52 S 6 9 30.09 1019 10 16 0.00 0.00
10:15 pm 22:15 Cloudy 71 21.8 52 11.3 51 51 S 8 13 30.09 1019 10 16 0.00 0.00
10:35 pm 22:35 Cloudy 72 22 53 11.7 52 52 S 7 11 30.09 1019 10 16 0.00 0.00
10:55 pm 22:55 Cloudy 71 21.6 53 11.4 52 52 S 8 13 30.09 1019 10 16 0.00 0.00
11:15 pm 23:15 Cloudy 71 21.5 53 11.5 53 53 S 12 19 30.09 1019 10 16 0.00 0.00
11:35 pm 23:35 Cloudy 70 21 53 11.5 55 55 S 7 11 30.09 1019 10 16 0.00 0.00
11:55 pm 23:55 Cloudy 69 20.8 54 12.1 58 58 S 10 17 30.09 1019 10 16 0.00 0.00

Powered by AerisWeather